Hourly Weather Bolshie Lipovichi

Today, 20 June, Sunday

Time Temperature Precipitation Wind Pressure Humidity
00:00 +19°C° 0 mm 3 mps 750 mmHg 92%
01:00 +19°C° 0 mm 3 mps 750 mmHg 93%
02:00 +19°C° 0 mm 2 mps 750 mmHg 93%
03:00 +19°C° 0 mm 2 mps 750 mmHg 93%
04:00 +19°C° 0 mm 2 mps 750 mmHg 93%
05:00 +19°C° 0 mm 2 mps 749 mmHg 93%
06:00 +21°C° 0 mm 2 mps 749 mmHg 87%
07:00 +24°C° 0 mm 2 mps 749 mmHg 82%
08:00 +25°C° 0 mm 3 mps 750 mmHg 77%
09:00 +26°C° 0 mm 3 mps 749 mmHg 73%
10:00 +27°C° 0 mm 3 mps 749 mmHg 69%
11:00 +28°C° 0 mm 4 mps 749 mmHg 65%
12:00 +29°C° 0 mm 4 mps 749 mmHg 63%
13:00 +29°C° 0 mm 4 mps 749 mmHg 61%
14:00 +29°C° 0 mm 4 mps 749 mmHg 59%
15:00 +29°C° 0 mm 3 mps 749 mmHg 62%
16:00 +28°C° 0 mm 3 mps 748 mmHg 66%
17:00 +28°C° 0 mm 3 mps 748 mmHg 69%
18:00 +27°C° 0 mm 3 mps 748 mmHg 74%
19:00 +25°C° 0 mm 3 mps 748 mmHg 79%
20:00 +24°C° 0 mm 2 mps 748 mmHg 84%
21:00 +22°C° 0 mm 3 mps 748 mmHg 85%
22:00 +21°C° 0 mm 3 mps 748 mmHg 85%
23:00 +20°C° 0 mm 3 mps 748 mmHg 86%

Tomorrow, 21 June, Monday

Time Temperature Precipitation Wind Pressure Humidity
00:00 +19°C° 0 mm 3 mps 748 mmHg 87%
01:00 +19°C° 0 mm 3 mps 748 mmHg 88%
02:00 +19°C° 0 mm 2 mps 747 mmHg 89%
03:00 +19°C° 0 mm 2 mps 748 mmHg 89%
04:00 +19°C° 0 mm 2 mps 748 mmHg 89%
05:00 +19°C° 0 mm 2 mps 748 mmHg 88%
06:00 +21°C° 0 mm 3 mps 748 mmHg 84%
07:00 +22°C° 0 mm 3 mps 748 mmHg 80%
08:00 +23°C° 0 mm 4 mps 748 mmHg 75%
09:00 +25°C° 0 mm 4 mps 747 mmHg 70%
10:00 +26°C° 0 mm 5 mps 747 mmHg 65%
11:00 +27°C° 0 mm 5 mps 747 mmHg 61%
12:00 +28°C° 0 mm 5 mps 747 mmHg 59%
13:00 +28°C° 0 mm 5 mps 747 mmHg 57%
14:00 +29°C° 0 mm 5 mps 747 mmHg 55%
15:00 +28°C° 0 mm 5 mps 746 mmHg 59%
16:00 +28°C° 0 mm 4 mps 746 mmHg 63%
17:00 +28°C° 0 mm 4 mps 746 mmHg 66%
18:00 +27°C° 0 mm 4 mps 746 mmHg 72%
19:00 +25°C° 0 mm 4 mps 746 mmHg 78%
20:00 +24°C° 0 mm 3 mps 746 mmHg 84%
21:00 +22°C° 0 mm 3 mps 746 mmHg 86%
22:00 +22°C° 0 mm 3 mps 746 mmHg 89%
23:00 +21°C° 0 mm 4 mps 746 mmHg 92%

Day after tomorrow, 22 June, Tuesday

Time Temperature Precipitation Wind Pressure Humidity
00:00 +20°C° 0 mm 3 mps 746 mmHg 93%
01:00 +20°C° 0 mm 3 mps 746 mmHg 94%
02:00 +20°C° 0 mm 3 mps 746 mmHg 95%
03:00 +20°C° 0 mm 3 mps 746 mmHg 94%
04:00 +20°C° 0 mm 3 mps 746 mmHg 94%
05:00 +20°C° 0 mm 3 mps 746 mmHg 93%
06:00 +22°C° 0 mm 4 mps 746 mmHg 88%
07:00 +23°C° 0 mm 4 mps 746 mmHg 82%
08:00 +25°C° 0 mm 5 mps 746 mmHg 77%
09:00 +27°C° 0 mm 5 mps 746 mmHg 72%
10:00 +28°C° 0 mm 5 mps 746 mmHg 67%
11:00 +29°C° 0 mm 5 mps 746 mmHg 62%
12:00 +29°C° 0 mm 5 mps 746 mmHg 61%
13:00 +30°C° 0 mm 5 mps 746 mmHg 59%
14:00 +30°C° 0 mm 5 mps 746 mmHg 58%
15:00 +30°C° 0 mm 5 mps 746 mmHg 60%
16:00 +30°C° 0 mm 5 mps 746 mmHg 62%
17:00 +30°C° 0 mm 4 mps 746 mmHg 64%
18:00 +28°C° 0 mm 4 mps 746 mmHg 70%
19:00 +27°C° 0 mm 3 mps 746 mmHg 76%
20:00 +26°C° 0 mm 3 mps 746 mmHg 83%
21:00 +25°C° 0 mm 3 mps 746 mmHg 83%
22:00 +24°C° 0 mm 3 mps 746 mmHg 83%
23:00 +22°C° 0 mm 4 mps 746 mmHg 83%

23 June, Wednesday

Time Temperature Precipitation Wind Pressure Humidity
00:00 +21°C° 0 mm 3 mps 746 mmHg 86%
01:00 +20°C° 0 mm 3 mps 746 mmHg 89%
02:00 +19°C° 0 mm 3 mps 746 mmHg 91%
03:00 +19°C° 0 mm 3 mps 746 mmHg 91%
04:00 +20°C° 0 mm 3 mps 747 mmHg 90%
05:00 +20°C° 0 mm 3 mps 747 mmHg 90%
06:00 +21°C° 0 mm 3 mps 747 mmHg 85%
07:00 +24°C° 0 mm 3 mps 747 mmHg 79%
08:00 +26°C° 0 mm 4 mps 747 mmHg 74%
09:00 +28°C° 0 mm 4 mps 747 mmHg 69%
10:00 +29°C° 0 mm 4 mps 747 mmHg 65%
11:00 +30°C° 0 mm 4 mps 747 mmHg 60%
12:00 +32°C° 0 mm 4 mps 747 mmHg 58%
13:00 +32°C° 0 mm 4 mps 747 mmHg 56%
14:00 +33°C° 0 mm 5 mps 747 mmHg 55%
15:00 +33°C° 0.1 mm 4 mps 747 mmHg 58%
16:00 +32°C° 0.1 mm 4 mps 747 mmHg 60%
17:00 +32°C° 0.1 mm 4 mps 747 mmHg 63%
18:00 +30°C° 0.1 mm 3 mps 747 mmHg 69%
19:00 +28°C° 0.1 mm 3 mps 747 mmHg 76%
20:00 +27°C° 0.1 mm 3 mps 747 mmHg 82%
21:00 +26°C° 0 mm 3 mps 747 mmHg 83%
22:00 +25°C° 0 mm 3 mps 747 mmHg 85%
23:00 +24°C° 0 mm 3 mps 747 mmHg 87%

24 June, Thursday

Time Temperature Precipitation Wind Pressure Humidity
00:00 +24°C° 0 mm 3 mps 747 mmHg 88%
01:00 +22°C° 0 mm 3 mps 747 mmHg 89%
02:00 +22°C° 0 mm 3 mps 747 mmHg 91%
03:00 +23°C° 0 mm 2 mps 747 mmHg 91%
04:00 +23°C° 0 mm 2 mps 747 mmHg 91%
05:00 +23°C° 0 mm 2 mps 747 mmHg 91%
06:00 +25°C° 0 mm 3 mps 748 mmHg 86%
07:00 +26°C° 0 mm 3 mps 748 mmHg 80%
08:00 +28°C° 0 mm 4 mps 748 mmHg 74%
09:00 +29°C° 0 mm 4 mps 748 mmHg 68%
10:00 +30°C° 0 mm 4 mps 748 mmHg 63%
11:00 +32°C° 0 mm 4 mps 748 mmHg 57%
12:00 +32°C° 0 mm 4 mps 748 mmHg 57%
13:00 +33°C° 0 mm 4 mps 748 mmHg 56%
14:00 +33°C° 0 mm 4 mps 748 mmHg 55%
15:00 +33°C° 0.2 mm 4 mps 748 mmHg 59%
16:00 +32°C° 0.2 mm 4 mps 747 mmHg 62%
17:00 +32°C° 0.2 mm 4 mps 747 mmHg 66%
18:00 +29°C° 0.1 mm 4 mps 747 mmHg 71%
19:00 +27°C° 0.1 mm 4 mps 747 mmHg 75%
20:00 +26°C° 0.1 mm 4 mps 747 mmHg 80%
21:00 +24°C° 0.5 mm 3 mps 747 mmHg 81%
22:00 +23°C° 0.5 mm 2 mps 747 mmHg 81%
23:00 +20°C° 0.5 mm 2 mps 747 mmHg 82%

25 June, Friday

Time Temperature Precipitation Wind Pressure Humidity
00:00 +20°C° 0.2 mm 2 mps 747 mmHg 85%
01:00 +20°C° 0.2 mm 2 mps 747 mmHg 88%
02:00 +20°C° 0.2 mm 2 mps 747 mmHg 91%
03:00 +21°C° 0 mm 2 mps 746 mmHg 91%
04:00 +21°C° 0 mm 2 mps 746 mmHg 92%
05:00 +21°C° 0 mm 2 mps 746 mmHg 92%
06:00 +24°C° 0 mm 3 mps 746 mmHg 88%
07:00 +25°C° 0 mm 3 mps 747 mmHg 84%
08:00 +27°C° 0 mm 4 mps 747 mmHg 80%
09:00 +28°C° 0.1 mm 4 mps 747 mmHg 75%
10:00 +29°C° 0.1 mm 4 mps 747 mmHg 70%
11:00 +30°C° 0.1 mm 4 mps 747 mmHg 66%
12:00 +32°C° 0 mm 4 mps 746 mmHg 63%
13:00 +32°C° 0 mm 5 mps 746 mmHg 60%
14:00 +33°C° 0 mm 5 mps 746 mmHg 57%
15:00 +32°C° 0 mm 4 mps 746 mmHg 59%
16:00 +30°C° 0 mm 4 mps 745 mmHg 61%
17:00 +30°C° 0 mm 4 mps 745 mmHg 64%
18:00 +29°C° 0 mm 3 mps 745 mmHg 68%
19:00 +27°C° 0 mm 2 mps 745 mmHg 71%
20:00 +26°C° 0 mm 2 mps 744 mmHg 75%
21:00 +25°C° 0.3 mm 2 mps 745 mmHg 79%
22:00 +24°C° 0.3 mm 2 mps 745 mmHg 83%
23:00 +24°C° 0.3 mm 2 mps 745 mmHg 87%
Show more